FALCON 9 R/B, 62007

Orbit data source: Space-Track

FALCON 9 R/B, 62007 is space debris in HEO originally from a launch on Sun, 17 Nov 2024 UTC launched from the Air Force Eastern Test Range (AFETR). Debris objects in space refer to the collection of defunct objects orbiting the Earth. Examples of debris include non-operational satellites, rocket bodies, and fragments generated from explosions, collisions, or faulty payload assembly.

Not visible in the next 10 days
Identifier
62007, 2024-212B
Orbit
HEO
Country
Flag of USUS
Related business
Manufacturer
SpaceX
Mission
Spacecraft
Bus & Motor
F9ST2, Unknown motor
Mass
~4,000 kg wet, ~4,000 kg dry
Launch date (UTC)
2024-11-17 (1 year ago)
Launch vehicle
Unknown
Launch site
Air Force Eastern Test Range (AFETR)
Object type
Payload
Rocket body
Debris
Shape & HBR
Cyl, 7.8 m
Radar Cross Section
39.980 m², Large (>1 m²)

Expand to show TLE details & history
Last TLE update: 17 hours ago

TLE from 17 hours ago
0 FALCON 9 R/B
1 62007U 24212B   26061.49838326 -.00000127  00000-0  85477-3 0  9999
2 62007  18.3213  95.7934 7801966  45.5504 356.3670  1.58893278  7426
Epoch: 2026-03-02T11:57Z
TLE epoch observation values (Epoch: 2026-03-02T11:57:40.313Z)
Latitude
-0.00019°
Longitude
116.32453°
Altitude
1,419.429 km
Speed
9.454 km/s
True Right ascension
06h 24m 08s
True Declination
0° 00' 01"
Sunlit
Object was in daylight at epoch
Visualization orbit readout
Latitude
Unknown
Longitude
Unknown
Altitude
Unknown
Speed
Unknown
Apparent Right ascension
Unknown
Apparent Declination
Unknown
Sunlit
N/A
Visualization observer readout
Local Sidereal Time
08:39:12
Azimuth
Unknown
Elevation
Unknown
Doppler factor
Unknown
Orbital elements
Apogee altitude
48,855.32 km
Perigee altitude
441.616 km
Semi-major axis
31,026.605 km
Eccentricity
0.7802
Inclination
18.3213°
RAAN
95.7934°
Arg. of periapsis
45.5504°
True anomaly
316.85708°
Mean anomaly
356.367°
Eccentric anomaly
344.18209°
Mean motion
0.39714 °/min
Orbital period
906.49 mins
BSTAR
0.00085477
Loading maneuver chart data...
Computing Atmospheric mass density...
Loading historical data...
Loading historical data...
Loading historical data...
Loading historical data...
Loading historical data...
Loading historical data...
Loading historical data...
Other satellites on launch #212 in the year 2024 (2024-11-17 UTC)

Documentation

Showing up to 5 results
|